Terminal Aerodrome Forecast
Issued by NWS Charleston, WV

Current Version | Previous Version | Graphics & Text | Print | Product List | Glossary On
Versions: 1 2 3 4 5 6 7 8 9 10 11 12 13 14 15 16 17 18 19 20 21
000
FTUS41 KRLX 261731
TAFBKW
TAF
KBKW 261731Z 2618/2718 25007KT P6SM -SHRA VCTS BKN050CB
     FM262300 22005KT P6SM BKN250
     FM271400 23005KT P6SM BKN040=

USA.gov is the U.S. government's official web portal to all federal, state and local government web resources and services.